Location: Jastrz?bniki
(50.3667°N, 20.3833°E)
Time: 11:41:14
(UTC+00:00)

ADEOS II - Pass Details

Date: 05 August 2024
Orbit: 795 x 798 km, 98.7° (Epoch: 09 September)

Event Time Altitude Azimuth Distance (km) Brightness Sun altitude
Rises 02:09:59 0° 9° (N) 3,318 6.2 -9.1°
Reaches altitude 10° 02:12:29 10° 1° (N) 2,383 5.2 -8.8°
Maximum altitude 02:17:13 35° 297° (WNW) 1,263 2.9 -8.2°
Drops below altitude 10° 02:21:56 10° 233° (SW) 2,367 3.8 -7.6°
Enters shadow 02:22:06 - 232° (SW) 2,428 3.9 -7.6°
